Zurück zum Katalog

OPS 6582

TRANSIT 5E-5

AktivNavigationPO
NORAD 959·PAYLOAD·🇺🇸 United States

Gestartet Dec 13, 1964 von Vandenberg Space Force Base

Loading…

Nächste Überflüge (nächste 24 Stunden)

TLE

AktuellSource: Space-Track

Epoche: Sep 14, 2026, 05:11 UTC

1 00959U 64083C   26257.21663451  .00000153  00000-0  18275-3 0  9999
2 00959  90.0154 187.4429 0043839  42.1063 122.8600 13.62518966 62332

Verfolge OPS 6582 in Echtzeit mit AllMySat

Download on the App Store